Content
SEND FEEDBACK

Daily
Averages
Monthly
Summary
Serbia

POJEJENA, SERBIA


Home > Europe > Serbia
Elevation: 276 feet     Latitude: 44 45N     Longitude: 021 31E

WEATHER
 
SELECT A DAY
Number of Records: 74,470;   Date Range: 6/19/04 - 7/7/14
 
SHARE

PRINT THIS DATA

[ ← Previous Day ]
WEATHER ALMANAC - JANUARY 31, 2013
[ Next Day → ]
[ °C ]   °F
Weather ElementAverageHighLow
Temperature45.9 °F53.6 °F (1:00 pm)37.4 °F (8:00 pm)
Dewpoint37.8 °F44.6 °F (9:30 am)33.8 °F (12:30 am)
Humidity74.2 %100 % (6:30 am)48 % (4:00 pm)
Barometer30.00 in30.06 in (10:30 am)29.86 in (2:00 am)
Wind Speed8.9 mph28.8 mph (1:00 pm)
Wind Gust31.1 mph (2:00 am)
Weather ElementAverage
Visibility6.6 mi
Wind DirectionS (183.7 °)

Weather ElementTotal
Precipitation---
Heating Degree Days19.5 (Base 65)
Averaged from 51 records on January 31, 2013
WEATHER CONDITIONS BREAKOUT
WIND DIRECTION BREAKOUT
WEATHER BY HOUR - JANUARY 31, 2013
[ °C ]   °F
Local TimeTemperatureDewpointHumidityBarometerVisibilityWind DirectionWind SpeedGust SpeedPrecipitationEventsConditions
12:30 AM46.4 °F33.8 °F62 %29.89 inSSE (150°)18.4 mphClear
1:00 AM48.2 °F33.8 °F58 %29.89 inSSE (160°)17.3 mphClear
1:30 AM46.4 °F35.6 °F66 %29.89 inSouth (170°)12.7 mph25.3 mphClear
2:00 AM46.4 °F35.6 °F66 %29.86 inSSE (160°)16.1 mph31.1 mphClear
2:30 AM48.2 °F35.6 °F62 %29.86 inSSE (160°)12.7 mph25.3 mphClear
3:00 AM48.2 °F35.6 °F62 %29.86 inSSE (160°)17.3 mphClear
3:30 AM48.2 °F35.6 °F62 %29.86 inSouth (170°)10.4 mph24.2 mphClear
4:00 AM48.0 °F36.0 °F52 %29.90 in9.0 miSSW (200°)4.5 mphOvercast
4:00 AM48.2 °F35.6 °F62 %29.89 inSSW (200°)4.6 mphClear
4:30 AM46.4 °F35.6 °F66 %29.89 inSE (140°)1.2 mphClear
5:00 AM42.8 °F39.2 °F87 %29.95 in6.2 miWNW (300°)8.1 mphRainLight Rain
5:30 AM41.0 °F39.2 °F93 %29.98 in6.2 miVariable2.3 mphRainLight Rain
6:00 AM42.8 °F39.2 °F87 %29.95 in6.2 miVariable2.3 mphRainLight Rain
6:30 AM41.0 °F41.0 °F100 %29.98 in4.3 miWest (280°)4.6 mphRainLight Rain
7:00 AM39.2 °F39.2 °F100 %30.01 in3.7 miVariable2.3 mphRainLight Rain
7:30 AM41.0 °F41.0 °F100 %30.04 in3.1 miVariable2.3 mphRainLight Rain
8:00 AM41.0 °F41.0 °F100 %30.01 in3.1 miSSE (150°)5.8 mphRainRain
8:30 AM42.8 °F42.8 °F100 %30.04 in6.2 miVariable2.3 mphRainLight Rain
9:00 AM44.6 °F41.0 °F87 %30.01 in6.2 miWest (280°)5.8 mphScattered Clouds
9:30 AM44.6 °F44.6 °F100 %30.04 in6.2 miWest (280°)6.9 mphPartly Cloudy
10:00 AM47.0 °F43.0 °F81 %30.05 in9.0 miWNW (290°)11.2 mphPartly Cloudy
10:00 AM46.4 °F42.8 °F87 %30.04 in6.2 miWNW (290°)11.5 mphPartly Cloudy
10:30 AM48.2 °F42.8 °F82 %30.06 in6.2 miWNW (290°)15.0 mphPartly Cloudy
11:00 AM50.0 °F41.0 °F71 %30.04 in6.2 miNW (310°)13.8 mphPartly Cloudy
11:30 AM50.0 °F41.0 °F71 %30.04 in6.2 miNW (320°)17.3 mphPartly Cloudy
12:00 PM51.8 °F41.0 °F67 %30.04 in6.2 miNW (320°)21.9 mphPartly Cloudy
12:30 PM51.8 °F39.2 °F62 %30.04 in6.2 miNW (320°)24.2 mphPartly Cloudy
1:00 PM53.6 °F39.2 °F58 %30.04 in6.2 miNW (320°)28.8 mphPartly Cloudy
1:30 PM53.6 °F39.2 °F58 %30.04 in6.2 miNW (320°)21.9 mphPartly Cloudy
2:00 PM53.6 °F39.2 °F58 %30.06 in6.2 miNW (320°)19.6 mphScattered Clouds
2:30 PM51.8 °F39.2 °F62 %30.06 in6.2 miNNW (330°)13.8 mphScattered Clouds
3:00 PM51.8 °F37.4 °F58 %30.04 in6.2 miVariable16.1 mphScattered Clouds
3:30 PM53.6 °F37.4 °F54 %30.04 in6.2 miNNW (330°)10.4 mphScattered Clouds
4:00 PM52.0 °F38.0 °F48 %30.06 in19.0 miNNW (340°)6.7 mphPartly Cloudy
4:00 PM51.8 °F37.4 °F58 %30.04 in6.2 miVariable6.9 mphScattered Clouds
4:30 PM50.0 °F39.2 °F66 %30.04 in6.2 miVariable2.3 mphPartly Cloudy
5:00 PM46.4 °F37.4 °F71 %30.04 in6.2 miVariable1.2 mphPartly Cloudy
5:30 PM42.8 °F37.4 °F81 %30.04 inSW (220°)3.5 mphClear
6:00 PM41.0 °F37.4 °F87 %30.06 inVariable1.2 mphClear
6:30 PM41.0 °F35.6 °F81 %30.06 inSSW (210°)4.6 mphClear
7:00 PM39.2 °F35.6 °F87 %30.06 inVariable1.2 mphClear
7:30 PM39.2 °F35.6 °F87 %30.04 inSouth (170°)2.3 mphClear
8:00 PM37.4 °F35.6 °F93 %30.04 inSSW (210°)3.5 mphClear
8:30 PM39.2 °F35.6 °F87 %30.04 inSouth (170°)4.6 mphClear
9:00 PM39.2 °F35.6 °F87 %30.01 inSouth (190°)3.5 mphClear
9:30 PM41.0 °F35.6 °F81 %30.01 inSouth (190°)4.6 mphClear
10:00 PM42.0 °F34.0 °F66 %30.02 in9.0 miSouth (190°)2.2 mph
10:00 PM42.8 °F33.8 °F70 %30.01 inSouth (190°)3.5 mphClear
10:30 PM42.8 °F33.8 °F70 %29.98 inSSW (200°)5.8 mphClear
11:00 PM46.4 °F33.8 °F62 %29.98 inSouth (180°)8.1 mphClear
11:30 PM46.4 °F33.8 °F62 %29.95 inSouth (190°)4.6 mphClear
Hourly data recorded from LYVR, located miles away from Pojejena, Serbia







STORIES FROM OUR PARTNERS